User: anonymous   Login
Location: Allos
(44.2333°N, 6.6333°E)
Time: 22:14:56
(UTC+00:00)
Language:

PSLV DEB - Orbit

View from above orbital plane
View from above orbital plane
View from above satellite
View from above satellite

Ground track
Ground track

The orbit data is extracted from the following two-line orbital elements,

1 27267U 01049HP  21175.02021561  .00000800  00000-0  86514-4 0  9997
2 27267  98.0526 199.9079 0045592  85.3030 275.3392 14.90512400 52301
Epoch (UTC): 24 June 2021 00:29:06
Eccentricity: 0.0045592
inclination: 98.0526°
perigee height: 564 km
apogee height: 628 km
right ascension of ascending node: 199.9079°
argument of perigee: 85.3030°
revolutions per day: 14.90512400
mean anomaly at epoch: 275.3392°
orbit number at epoch: 5230

The dashed part of the orbit path shows where the satellite is in the earth's shadow,  

DLR